Edenton, NC

8:22 AM EST on December 11, 2016 (GMT -0500)
Northeastern Regional

Weather History for KEDE - June, 2013

Change the Weather History Date:

Thursday, June 27, 2013

  Actual Average Record
Temperature  
Mean Temperature 80 °F -  
Max Temperature 88 °F 87 °F 99 °F (1952)
Min Temperature 73 °F 68 °F 54 °F (1985)
Cooling Degree Days 16    
Growing Degree Days 30 (Base 50)    
Moisture  
Dew Point 72 °F    
Average Humidity 83    
Maximum Humidity 96    
Minimum Humidity 65    
Precipitation  
Precipitation 0.27 in - - ()
Sea Level Pressure  
Sea Level Pressure 29.83 in    
Wind  
Wind Speed 10 mph (SW)    
Max Wind Speed 21 mph    
Max Gust Speed 28 mph    
Visibility 10 miles    
Events Rain    
Averages and records for this station are not official NWS values.
T = Trace of Precipitation, MM = Missing Value Source: NWS Daily Summary

Daily Weather History Graph

Daily Weather History Graph

Search for Another Location

Airport or City:

Trip Planner

Search our weather history database for the weather conditions in past years. The results will help you decide how hot, cold, wet, or windy it might be!

Date:

Astronomy

Jun. 27, 2013 Rise Set
Actual Time 5:51 AM EDT 8:27 PM EDT
Civil Twilight 5:21 AM EDT 8:57 PM EDT
Nautical Twilight 4:43 AM EDT 9:34 PM EDT
Astronomical Twilight 4:02 AM EDT 10:16 PM EDT
Moon 11:33 PM EDT (6/27) 10:40 AM EDT (6/27)
Length of Visible Light 15h 36m
Length of Day
14h 35m
Waning Gibbous, 76% of the Moon is Illuminated
Jun 27
Waning Gibbous
Jun 30
Last Quarter
Jul 8
New
Jul 15
First Quarter
Jul 22
Full

Hourly Weather History & Observations

Time (EDT) Temp. Heat Index Dew Point Humidity Pressure Visibility Wind Dir Wind Speed Gust Speed Precip Events Conditions
12:15 AM 75.9 °F - 68.7 °F 78% 29.91 in 10.0 mi SW 10.4 mph - N/A   Clear
12:35 AM 75.2 °F - 69.3 °F 82% 29.90 in 10.0 mi SW 10.4 mph - N/A   Clear
12:55 AM 74.5 °F - 69.8 °F 85% 29.89 in 10.0 mi SSW 5.8 mph - N/A   Clear
1:15 AM 73.8 °F - 70.7 °F 90% 29.89 in 10.0 mi SW 8.1 mph - N/A   Clear
1:35 AM 74.3 °F - 71.8 °F 92% 29.89 in 10.0 mi WSW 6.9 mph - N/A   Mostly Cloudy
2:15 AM 73.9 °F - 72.1 °F 94% 29.89 in 10.0 mi SW 8.1 mph - N/A   Overcast
2:35 AM 74.1 °F - 72.5 °F 95% 29.89 in 7.0 mi SW 9.2 mph - N/A   Overcast
2:55 AM 73.9 °F - 72.7 °F 96% 29.89 in 7.0 mi SW 8.1 mph - N/A   Overcast
3:15 AM 74.3 °F - 72.7 °F 95% 29.91 in 7.0 mi WSW 6.9 mph - N/A   Overcast
3:35 AM 74.5 °F - 72.7 °F 94% 29.90 in 7.0 mi SW 8.1 mph - N/A   Overcast
3:55 AM 74.5 °F - 72.7 °F 94% 29.91 in 7.0 mi WSW 8.1 mph - N/A   Mostly Cloudy
4:15 AM 74.5 °F - 72.5 °F 94% 29.91 in 10.0 mi WSW 6.9 mph - N/A   Mostly Cloudy
4:35 AM 74.5 °F - 72.3 °F 93% 29.91 in 10.0 mi West 9.2 mph - N/A   Mostly Cloudy
4:55 AM 74.3 °F - 70.5 °F 88% 29.91 in 10.0 mi WSW 6.9 mph - N/A   Scattered Clouds
5:15 AM 74.3 °F - 70.0 °F 86% 29.89 in 10.0 mi SW 3.5 mph - N/A   Clear
5:35 AM 74.3 °F - 69.8 °F 86% 29.90 in 10.0 mi WSW 6.9 mph - N/A   Scattered Clouds
5:55 AM 74.7 °F - 69.1 °F 83% 29.90 in 10.0 mi WSW 5.8 mph - N/A   Scattered Clouds
6:15 AM 74.7 °F - 68.0 °F 80% 29.89 in 10.0 mi SW 6.9 mph - N/A   Clear
6:35 AM 75.2 °F - 67.5 °F 77% 29.89 in 10.0 mi SW 6.9 mph - N/A   Clear
6:55 AM 75.2 °F - 68.4 °F 79% 29.89 in 10.0 mi SW 6.9 mph - N/A   Scattered Clouds
7:15 AM 75.2 °F - 68.4 °F 79% 29.89 in 10.0 mi SSW 10.4 mph - N/A   Clear
7:35 AM 75.2 °F - 68.9 °F 81% 29.89 in 10.0 mi SSW 10.4 mph - N/A   Clear
7:55 AM 76.1 °F - 69.8 °F 81% 29.89 in 10.0 mi SSW 11.5 mph - N/A   Clear
8:15 AM 76.1 °F - 69.8 °F 81% 29.88 in 10.0 mi SW 10.4 mph - N/A   Clear
8:35 AM 77.0 °F - 70.3 °F 80% 29.88 in 10.0 mi SSW 11.5 mph - N/A   Clear
8:55 AM 77.4 °F - 70.5 °F 79% 29.88 in 10.0 mi SW 11.5 mph - N/A   Clear
9:15 AM 77.2 °F - 70.7 °F 80% 29.88 in 10.0 mi SSW 13.8 mph - N/A   Clear
9:35 AM 78.3 °F - 71.4 °F 79% 29.88 in 10.0 mi SW 12.7 mph - N/A   Clear
10:15 AM 79.9 °F - 72.5 °F 78% 29.85 in 10.0 mi SSW 10.4 mph - N/A   Clear
10:35 AM 81.1 °F 85.8 °F 72.7 °F 75% 29.85 in 10.0 mi SSW 10.4 mph - N/A   Clear
10:55 AM 83.1 °F 90.1 °F 74.3 °F 75% 29.85 in 10.0 mi SSW 9.2 mph - N/A   Clear
11:15 AM 84.2 °F 91.2 °F 73.9 °F 71% 29.84 in 10.0 mi SSW 11.5 mph - N/A   Clear
11:35 AM 85.1 °F 93.7 °F 75.2 °F 72% 29.83 in 10.0 mi SSW 9.2 mph - N/A   Clear
11:55 AM 85.8 °F 94.2 °F 74.7 °F 69% 29.83 in 10.0 mi SSW 11.5 mph 16.1 mph N/A   Clear
12:15 PM 86.5 °F 95.9 °F 75.4 °F 69% 29.83 in 10.0 mi SW 12.7 mph 16.1 mph N/A   Clear
12:35 PM 86.9 °F 96.4 °F 75.0 °F 68% 29.82 in 10.0 mi SSW 12.7 mph - N/A   Clear
12:55 PM 87.3 °F 96.8 °F 75.0 °F 67% 29.83 in 10.0 mi SW 11.5 mph 18.4 mph N/A   Clear
1:15 PM 87.6 °F 97.6 °F 75.4 °F 67% 29.82 in 10.0 mi SW 13.8 mph 17.3 mph N/A   Scattered Clouds
1:35 PM 87.8 °F 98.1 °F 75.7 °F 67% 29.81 in 10.0 mi SW 9.2 mph - N/A   Clear
1:55 PM 88.0 °F 98.0 °F 75.4 °F 66% 29.81 in 10.0 mi SW 10.4 mph - N/A   Clear
2:15 PM 88.3 °F 99.5 °F 75.9 °F 67% 29.80 in 10.0 mi SW 12.7 mph 17.3 mph N/A   Clear
2:35 PM 88.5 °F 98.8 °F 75.2 °F 65% 29.78 in 10.0 mi SW 10.4 mph 16.1 mph N/A   Clear
2:55 PM 87.8 °F 97.6 °F 75.2 °F 66% 29.78 in 10.0 mi SW 11.5 mph 16.1 mph N/A   Scattered Clouds
3:15 PM 81.9 °F 85.6 °F 70.0 °F 67% 29.79 in 10.0 mi SW 20.7 mph 27.6 mph N/A Rain Rain
3:35 PM 77.4 °F - 69.8 °F 77% 29.79 in 7.0 mi WSW 20.7 mph 26.5 mph 0.10 in Rain Heavy Rain
3:55 PM 75.2 °F - 72.1 °F 90% 29.78 in 7.0 mi South 16.1 mph 20.7 mph 0.24 in Rain Light Rain
4:15 PM 75.6 °F - 71.6 °F 87% 29.78 in 10.0 mi South 16.1 mph - N/A   Clear
4:35 PM 74.7 °F - 69.3 °F 83% 29.78 in 10.0 mi SSE 11.5 mph 20.7 mph N/A   Clear
4:55 PM 75.4 °F - 70.5 °F 85% 29.78 in 10.0 mi SSE 9.2 mph - N/A   Clear
5:15 PM 76.5 °F - 70.9 °F 83% 29.76 in 10.0 mi South 16.1 mph - N/A   Clear
5:35 PM 77.2 °F - 71.1 °F 81% 29.78 in 10.0 mi South 16.1 mph 23.0 mph N/A   Clear
5:55 PM 78.3 °F - 71.6 °F 80% 29.77 in 10.0 mi South 15.0 mph - N/A   Clear
6:15 PM 79.0 °F - 70.9 °F 76% 29.78 in 10.0 mi SW 19.6 mph 27.6 mph N/A   Clear
6:35 PM 77.2 °F - 71.1 °F 81% 29.76 in 7.0 mi SW 15.0 mph 24.2 mph 0.01 in Rain Light Rain
6:55 PM 76.5 °F - 71.4 °F 84% 29.75 in 10.0 mi SSW 9.2 mph - 0.01 in Rain Light Rain
7:15 PM 77.4 °F - 73.4 °F 88% 29.74 in 10.0 mi SSW 9.2 mph - N/A Rain Light Rain
7:35 PM 77.2 °F - 72.9 °F 86% 29.75 in 10.0 mi SSW 9.2 mph - N/A   Clear
7:55 PM 77.5 °F - 73.4 °F 87% 29.75 in 10.0 mi SSW 11.5 mph - N/A   Clear
8:15 PM 77.5 °F - 73.9 °F 89% 29.77 in 10.0 mi SW 15.0 mph 19.6 mph N/A   Clear
8:35 PM 77.7 °F - 74.7 °F 90% 29.77 in 10.0 mi SSW 15.0 mph 20.7 mph N/A   Mostly Cloudy
8:55 PM 77.4 °F - 74.5 °F 91% 29.76 in 10.0 mi SSW 15.0 mph 21.9 mph 0.02 in Rain Heavy Rain
9:15 PM 76.3 °F - 74.8 °F 95% 29.76 in 10.0 mi SSW 9.2 mph - N/A   Scattered Clouds
9:35 PM 76.6 °F - 75.4 °F 96% 29.76 in 10.0 mi SSW 10.4 mph - N/A   Clear
9:55 PM 76.5 °F - 74.5 °F 94% 29.76 in 10.0 mi SSW 10.4 mph - N/A   Clear
10:15 PM 76.5 °F - 74.5 °F 94% 29.75 in 10.0 mi SSW 11.5 mph - N/A   Clear
10:35 PM 76.3 °F - 73.6 °F 91% 29.76 in 10.0 mi SW 8.1 mph - N/A   Clear
10:55 PM 76.3 °F - 73.6 °F 91% 29.76 in 10.0 mi SSW 8.1 mph - N/A   Clear
11:15 PM 76.5 °F - 73.8 °F 91% 29.77 in 10.0 mi SSW 9.2 mph - N/A   Clear
11:35 PM 76.5 °F - 74.3 °F 93% 29.77 in 10.0 mi SSW 10.4 mph 16.1 mph N/A   Clear
11:55 PM 76.1 °F - 74.3 °F 94% 29.78 in 10.0 mi SSW 10.4 mph - N/A   Clear